Home   Weather   Reykjavik   Past weeks

Flag for Iceland Past Weather in Reykjavik, Iceland — Yesterday and Last 2 Weeks

Now
30 °F

Passing clouds.


Feels Like: 23 °F
Forecast: 22 / 29 °F
Wind: 8 mph from East

Location: Reykjavik Airport

Current Time: Nov 18, 2017 at 4:54:31 am

Latest Report: Nov 18, 2017 at 4:00 am


Visibility: N/A

Pressure: 30.15 "Hg

Humidity: 75%

Dew Point: 23 °F

Location of ReykjavikLocation

Past Weather in Reykjavik — Graph

°F

Reykjavik Temperature Yesterday

Maximum temperature yesterday: 34 °F (at 12:00 am)
Minimum temperature yesterday: 32 °F (at 2:00 am)
Average temperature yesterday: 33 °F

High & Low Weather Summary for the Past Weeks

 TemperatureHumidityPressure
High45 °F (Nov 6, 2:00 am)100% (Nov 10, 12:00 am)30.24 "Hg (Nov 10, 12:00 am)
Low21 °F (Nov 11, 5:00 am)48% (Nov 16, 8:00 pm)28.94 "Hg (Nov 6, 2:00 am)
Average34 °F78%29.53 "Hg
* Reported Nov 3 3:00 am — Nov 18 3:00 am, Reykjavik. Weather by CustomWeather, © 2017

Note: Actual official high and low records may vary slightly from our data, if they occured in-between our weather recording intervals... More about our weather records

Advertising

Reykjavik Weather History for the Previous 24 Hours

Scroll right to see more
 ConditionsComfort  
Time TempWeatherWind HumidityBarometerVisibility
3:00 am
Sat, Nov 18
32 °FPassing clouds.6 mph69%30.15 "HgN/A
2:00 am32 °FPassing clouds.9 mph75%30.15 "HgN/A
1:00 am34 °FPassing clouds.14 mph70%30.15 "HgN/A
12:00 am34 °FPassing clouds.9 mph70%30.12 "HgN/A
11:00 pm
Fri, Nov 17
34 °FPassing clouds.7 mph65%30.09 "HgN/A
10:00 pm34 °FPartly cloudy.8 mph60%30.09 "HgN/A
9:00 pm34 °FPassing clouds.10 mph60%30.07 "HgN/A
8:00 pm34 °FPassing clouds.12 mph56%30.07 "HgN/A
7:00 pm34 °FPassing clouds.14 mph56%30.04 "HgN/A
6:00 pm34 °FPassing clouds.9 mph60%30.01 "HgN/A
5:00 pm34 °FPassing clouds.8 mph65%30.01 "HgN/A
4:00 pm34 °FPartly sunny.10 mph60%29.98 "HgN/A
3:00 pm34 °FPartly sunny.10 mph60%29.95 "HgN/A
2:00 pm34 °FPartly sunny.12 mph60%29.92 "HgN/A
1:00 pm32 °FScattered clouds.10 mph64%29.92 "HgN/A
12:00 pm32 °FScattered clouds.9 mph64%29.89 "HgN/A
11:00 am32 °FScattered clouds.8 mph64%29.86 "HgN/A
10:00 am32 °FPassing clouds.9 mph64%29.83 "HgN/A
9:00 am32 °FPartly cloudy.13 mph64%29.80 "HgN/A
8:00 am32 °FPassing clouds.16 mph69%29.77 "HgN/A
7:00 am32 °FPassing clouds.13 mph69%29.74 "HgN/A
6:00 am32 °FPassing clouds.14 mph69%29.71 "HgN/A
5:00 am32 °FPartly cloudy.16 mph87%29.68 "HgN/A
4:00 am32 °FPassing clouds.12 mph80%29.65 "HgN/A
Weather by CustomWeather, © 2017

See weather overview